Regional Weather Roundup
Issued by NWS Charleston, SC

Home | Current Version | Previous Version | Text Only | Print | Product List | Glossary On
Versions: 1 2 3 4 5 6 7 8 9 10 11 12 13 14 15 16 17 18 19 20 21 22 23 24 25 26 27 28 29 30 31 32 33 34 35 36 37 38 39 40 41 42 43 44 45 46 47 48 49 50
000
ASUS42 KCHS 231342
RWRCHS

REGIONAL WEATHER ROUNDUP
NATIONAL WEATHER SERVICE CHARLESTON SC
900 AM EDT SAT SEP 23 2017

NOTE: "FAIR" INDICATES FEW OR NO CLOUDS BELOW 12,000 FEET WITH NO
SIGNIFICANT WEATHER AND/OR OBSTRUCTIONS TO VISIBILITY.

NOT ALL STATIONS ARE QUALITY CONTROLLED. USE DATA WITH CAUTION...
ESPECIALLY DEWPOINT OBSERVATIONS.

SCZ027-030-031-034>040-042>050-231400-
...SOUTHEAST SOUTH CAROLINA...

CITY           SKY/WX    TMP DP  RH WIND       PRES   REMARKS
N CHARLESTON   MOSUNNY   75  73  93 NE8       30.03R
WATERFRONT PRK   N/A     76  74  93 NE7       29.86R
JOHNS ISLAND   FAIR      79  75  89 N8        30.02S
PINOPOLIS        N/A     73  73 100 NE8       29.95R
MONCKS CORNER    N/A     72  72 100 NE3       30.04R FOG
SUMMERVILLE    CLOUDY    72  72 100 N5        30.05R FOG
BEAUFORT MCAS  MOSUNNY   78  76  93 N6        30.02S
BEAUFORT ARPT  FAIR      77  73  88 NE10      30.01S
HILTON HEAD IS MOSUNNY   77  75  94 NE10      30.02R
WALTERBORO     MOSUNNY   73  72  94 CALM      30.04S
ALLENDALE      NOT AVBL

...SOUTHERN MIDLANDS AND PEE DEE...

CITY           SKY/WX    TMP DP  RH WIND       PRES   REMARKS
GEORGETOWN     FAIR      72  72 100 N7        30.04S
KINGSTREE      FAIR      73  70  88 CALM      30.04S
ORANGEBURG     SUNNY     75  69  81 CALM      30.04R
BARNWELL       FAIR      75  72  88 CALM      30.04S
AIKEN          FAIR      72  68  88 CALM      30.09R
MANNING        FAIR      73  72  94 MISG      30.04S
COLUMBIA       MOSUNNY   72  68  87 CALM      30.04R
SUMTER         SUNNY     74  69  84 CALM      30.02R
FLORENCE       SUNNY     73  70  90 N3        30.05R
MYRTLE BEACH   PTSUNNY   73  72  94 N6        30.05S
N MYRTLE BEACH CLOUDY    74  73  97 NE8       30.03S FOG

$$

GAZ063-065-086>088-099>101-113>116-118-119-134>141-150-231400-
...SOUTHEAST GEORGIA...

CITY           SKY/WX    TMP DP  RH WIND       PRES   REMARKS
SAVANNAH ARPT  CLOUDY    73  73 100 N5        30.02R FOG
HUNTER AAF     PTSUNNY   75  73  94 N5        29.99R
FORT STEWART   CLOUDY    72  71  96 N6        29.99R FOG
STATESBORO     MOSUNNY   75  71  87 NE3       30.03S
SYLVANIA       MOSUNNY   75  74  95 NE6       30.04S
CLAXTON        CLOUDY    74  73  95 NE3       30.03R FOG

...CSRA...CENTRAL AND FAR SOUTHEAST GEORGIA...

CITY           SKY/WX    TMP DP  RH WIND       PRES   REMARKS
THOMSON        MOSUNNY   70  68  95 CALM      30.11S
AUGUSTA-BUSH   SUNNY     74  70  87 CALM      30.04R
AUGUSTA-DANIEL SUNNY     75  70  84 CALM      30.05S
SWAINSBORO     FAIR      73  72  94 NE5       30.04S
VIDALIA        SUNNY     73  72  94 E7        30.04R
EASTMAN        FAIR      72  72 100 CALM      30.06S
HAZLEHURST     FAIR      75  67  74 E5        30.02S
ALMA           PTSUNNY   75  72  90 NE7       30.01S FOG
WAYCROSS       CLOUDY    73  70  90 NE6       30.00S FOG
JESUP          NOT AVBL
BAXLEY         FAIR      73  73 100 NE6       30.01S
BRUNSWICK      CLOUDY    73  70  88 N7        30.00S FOG
SAINT SIMONS   SUNNY     80  75  84 N7        29.98R

$$

SCZ027-028-034-036>038-045-046-048>050-GAZ119-141-231400-
...LAKE AND SUPPLEMENTAL COASTAL OBSERVATIONS...

STATION/POSITION TIME  TEMP    WIND        PRES    WAVE   SWELL
                       AIR SEA DIR/SP/G            HT/PER HT/PER/DIR
                 (UTC) (F)     (DEG/KT/KT) (MB)    (FT/S) (FT/S/D)
WINYAH BAY       1245   74     360/  4     1017.0R
LAKE MURRAY      1250   75      CALM  /  3 1016.6S
ACE BASIN NERRS  1245   74      20/  2     1016.0S
FORT PULASKI     1300   78 80   40/ 10/ 13 1016.4
SAPELO ISLAND    1300   76        CALM     1016.0

$$

ANZ835-935-AMZ111-154-330-350-352-354-370-450-454-472-231400-
...C-MAN AND BUOY OBSERVATIONS...

STATION/POSITION TIME  TEMP    WIND        PRES    WAVE   SWELL
                       AIR SEA DIR/SP/G            HT/PER HT/PER/DIR
                 (UTC) (F)     (DEG/KT/KT) (MB)    (FT/S) (FT/S/D)
BUOY 41004       1310   80 82   40/ 14/ 17 1015.5
BUOY 41008       1250   80 80   80/ 14/ 16 1014.9R   5/14   3/110/14
FOLLY BEACH CMAN 1300   77      20/  9/ 11 1016.9R
CAPERS NEARSHORE 1308   77 81   40/ 12/ 17 1016.0R
FRIPP NEARSHORE  1308   78      30/ 12/ 16 1023.3R


STATION/POSITION TIME  TEMP    WIND        PRES    WAVE   SWELL
                       AIR SEA DIR/SP/G            HT/PER HT/PER/DIR
                 (UTC) (F)     (DEG/KT/KT) (MB)    (FT/S) (FT/S/D)
5E ST. MARYS GA  1300      82                N/A     5/11   3/110/11
FRYING PAN BUOY  1310   80 82   30/ 12/ 14 1016.3
BUOY 41025       1250   77 76   70/  4/  4 1016.4R   8/14   8/160/14
CAPE LOOKOUT NC  1300   76     320/  6/  7 1016.3S
BUOY 41002       1250   79 79   60/ 17/ 19 1014.3F  10/13  10/120/13
BUOY 41010       1310           70/ 14/ 19 1013.7
ST AUGUSTINE FL  1300   80 82   30/ 15/ 16 1014.4R


$$




USA.gov is the U.S. government's official web portal to all federal, state and local government web resources and services.